Temp
56 56 56 57 57 57 57 57 57 57 58 58 59 59 59 59 58 56 57 59 54 49 56 58 59 57 58 59 57 60 64 64 66 64 65 67 68 70 68 68 69 72 70 69 67 66 66 80 80 77 78 78 79 77
56 56 56 56 56 57 57 57 57 57 57 58 58 59 59 59 58 58 53 59 60 50 54 60 61 63 62 62 57 60 60 59 65 61 64 64 67 68 67 66 66 68 74 73 75 75 71 76 79 79 79 80 79 78
56 56 56 56 56 56 56 57 57 57 57 58 58 59 59 58 58 57 56 56 54 51 55 57 56 65 68 66 69 55 64 65 65 67 63 63 60 69 67 68 67 68 69 72 71 71 74 78 79 81 82 82 83 84
55 55 56 56 56 56 56 57 57 57 57 57 58 58 58 58 57 58 54 57 55 53 45 55 66 61 69 69 66 66 68 68 66 64 62 62 62 70 69 69 72 73 71 69 69 73 76 77 79 81 82 83 83 84
55 55 55 55 56 56 56 56 56 57 57 57 57 58 58 58 56 57 56 55 56 52 45 51 61 67 68 67 64 64 62 60 58 58 61 61 67 67 69 68 71 74 71 75 75 78 79 76 79 83 82 80 83 82
54 55 55 55 55 56 56 56 56 57 56 57 57 58 58 56 56 54 48 54 56 55 48 46 62 61 66 65 65 61 59 58 59 58 60 63 68 68 68 68 71 75 75 76 74 77 78 78 80 82 80 79 80 80
54 55 55 55 55 56 55 56 56 56 56 56 57 57 56 55 55 51 50 53 55 55 47 46 52 64 66 64 65 62 61 60 60 60 58 61 63 67 68 68 71 73 74 75 78 78 74 79 74 79 79 79 75 79
54 54 55 55 56 56 56 56 55 56 56 56 56 55 55 55 54 52 56 54 56 52 50 45 50 57 68 63 59 64 57 59 60 61 60 58 62 67 65 67 69 72 75 76 77 80 78 77 78 78 81 81 78 77
54 55 55 55 55 55 56 56 56 55 56 56 55 55 54 53 49 53 57 58 55 51 44 48 47 51 65 64 61 58 59 53 62 59 57 58 58 61 65 67 70 73 76 72 75 77 77 75 75 76 77 78 76 75
56 56 56 55 55 56 56 56 56 56 55 55 54 50 46 52 57 58 52 47 46 48 48 46 56 50 59 59 57 56 61 55 55 61 59 58 59 63 66 68 69 72 72 76 72 71 73 72 73 74 75 76 76 75
56 55 55 55 55 55 55 56 55 54 54 52 48 47 54 57 54 49 45 44 45 44 50 52 56 51 59 55 55 64 56 53 55 62 58 59 62 65 67 66 68 71 75 77 79 79 79 76 74 73 73 74 75 74
55 55 55 55 55 54 54 54 54 52 52 52 52 53 52 50 48 43 43 45 46 47 53 51 54 55 57 59 57 58 55 52 53 64 62 54 64 64 64 66 67 71 75 76 77 75 76 75 75 75 74 74 74 74
55 55 55 55 55 54 54 55 55 54 54 54 49 45 47 46 39 39 40 43 43 52 54 53 53 55 57 55 54 56 53 49 61 59 58 61 61 64 62 66 68 73 75 74 74 75 75 73 74 75 73 73 74 73
54 54 54 54 55 55 54 54 55 54 51 46 42 36 41 41 45 50 52 51 55 55 55 57 54 54 58 54 53 51 58 56 52 56 60 60 61 62 65 67 68 70 73 73 72 73 72 72 72 73 74 73 73 72
54 54 55 55 55 55 54 55 54 53 49 44 43 39 45 53 54 55 55 53 56 58 56 56 56 54 54 52 53 52 50 55 62 62 63 62 62 62 65 70 70 70 71 71 72 72 71 71 72 71 72 73 73 71
54 53 54 55 55 54 54 54 53 52 48 44 44 44 51 49 51 53 51 53 57 56 57 57 54 51 50 52 51 52 56 57 61 60 59 62 61 62 64 67 69 70 70 71 72 72 71 71 72 72 71 72 71 71
53 52 55 54 54 54 53 51 50 46 45 46 47 53 52 52 51 52 55 56 58 56 53 53 50 50 51 51 53 56 58 57 56 56 60 63 63 63 66 67 68 68 69 70 70 70 71 71 71 71 69 68 71 70
52 53 54 54 53 52 51 50 49 48 44 48 49 51 52 54 52 55 56 55 55 53 55 50 54 51 49 53 54 55 56 57 59 60 62 63 64 65 67 66 67 68 68 69 70 69 70 69 69 70 69 69 69 68
53 54 53 53 53 51 49 48 49 44 47 49 50 52 53 52 54 55 55 55 57 58 56 53 50 50 51 53 55 56 57 59 59 60 63 65 66 65 64 65 66 66 67 67 67 70 70 69 71 71 71 71 70 70
53 53 53 54 53 49 47 49 52 48 46 49 51 50 50 50 51 52 53 54 53 52 49 48 46 48 49 52 56 57 58 60 61 60 59 61 63 65 66 68 68 66 68 68 68 60 69 68 70 70 71 69 69 68
52 54 54 53 51 50 49 48 50 50 50 50 51 50 48 49 48 48 48 50 49 47 46 47 48 50 53 55 57 59 60 62 63 63 61 62 66 68 67 68 68 69 69 70 69 65 63 67 67 69 69 68 69 69
53 55 52 53 50 50 47 50 51 53 51 51 50 50 47 46 45 46 48 46 44 45 46 47 49 52 57 57 58 60 61 63 63 60 57 59 65 66 66 68 68 67 67 65 66 66 66 68 67 69 69 67 65 68
53 54 53 52 49 48 48 55 51 51 48 47 49 46 46 45 46 48 44 45 46 49 49 50 52 53 54 58 59 60 62 63 62 62 62 65 64 64 64 64 68 67 64 63 66 65 65 56 61 68 68 68 68 67
55 53 52 52 52 47 55 53 54 55 52 47 47 46 46 48 50 46 42 44 48 50 51 52 55 55 57 56 57 59 60 62 61 61 63 63 62 61 65 66 68 69 69 63 64 65 66 66 57 68 68 68 67 67
47 48 50 39 56 53 52 52 52 53 48 49 49 48 49 51 46 43 43 46 48 50 52 53 53 54 53 55 60 60 61 65 64 62 63 66 64 64 64 65 65 66 67 62 64 66 66 67 67 68 67 67 67 66
40 52 45 52 52 52 51 50 50 50 51 49 48 50 52 51 45 42 45 49 51 53 54 55 56 57 58 60 61 62 62 66 66 63 62 66 67 66 64 63 64 64 67 70 67 66 65 66 67 66 66 61 49 65
44 50 53 55 53 53 53 53 53 53 50 49 50 51 50 44 42 48 54 53 55 57 57 57 59 59 61 62 61 62 64 65 66 65 64 66 67 69 69 67 64 67 68 68 68 68 66 65 66 66 66 66 66 67
52 52 49 53 53 52 52 52 52 50 52 53 53 49 47 47 46 52 57 57 57 58 58 58 59 59 62 62 64 63 63 64 64 64 65 65 65 66 66 67 66 46 67 69 69 69 69 70 68 67 67 67 68 69
53 54 53 53 54 54 52 51 52 54 55 55 52 50 51 55 59 57 56 56 57 59 57 56 60 62 60 62 63 64 65 66 65 63 64 64 66 66 66 68 69 70 69 69 50 57 68 70 71 71 71 70 70 68
54 55 54 54 52 50 53 54 56 58 58 58 58 55 57 55 55 60 62 58 57 58 58 60 60 60 62 64 62 62 63 65 66 68 66 65 66 66 65 65 66 67 67 67 69 68 46 60 56 67 66 66 66 66
56 57 55 55 53 55 57 59 62 63 63 61 63 60 59 61 64 65 66 66 67 66 66 65 65 66 66 66 65 64 62 62 61 62 64 64 64 63 63 63 64 65 67 68 68 68 68 67 68 67 66 66 66 64
58 55 56 53 54 59 62 60 59 59 60 60 59 62 62 62 59 62 65 64 64 64 57 61 63 63 65 65 65 65 51 64 63 63 61 63 63 62 64 65 67 68 68 68 68 69 67 67 67 66 66 64 64 64
58 58 57 57 56 57 59 60 58 58 59 59 60 60 60 60 59 64 64 64 65 65 64 65 67 66 64 65 65 62 55 63 55 44 43 43 43 50 63 66 66 66 66 66 66 66 64 63 64 63 63 63 63 63
MSLP
1018.59 1018.46 1018.25 1018.02 1017.78 1017.73 1017.63 1017.58 1017.55 1017.53 1017.49 1017.41 1017.39 1017.34 1017.42 1017.60 1017.87 1018.22 1017.97 1018.19 1018.08 1017.30 1015.81 1015.48 1014.89 1014.36 1013.92 1013.45 1012.59 1011.86 1010.77 1009.99 1008.59 1007.51 1006.17 1004.73 1003.73 1003.31 1003.19 1003.29 1003.04 1002.77 1003.14 1003.53 1003.94 1003.61 1003.41 1003.15 1003.56 1003.53 1003.48 1003.50 1003.59 1004.05
1017.84 1017.57 1017.55 1017.29 1017.08 1016.87 1016.83 1016.76 1016.77 1016.76 1016.79 1016.80 1016.82 1016.84 1016.89 1017.10 1017.45 1017.82 1017.86 1017.81 1017.89 1017.83 1016.05 1015.57 1015.03 1014.46 1014.47 1014.27 1014.24 1012.96 1011.98 1011.25 1010.15 1009.16 1007.83 1006.45 1004.97 1004.32 1003.89 1003.48 1003.97 1003.89 1003.35 1003.22 1003.51 1003.62 1003.81 1003.75 1003.54 1003.65 1003.71 1003.47 1003.63 1003.95
1016.91 1016.80 1016.60 1016.45 1016.30 1015.99 1015.91 1015.86 1015.83 1015.84 1015.91 1016.02 1016.09 1016.12 1016.11 1016.48 1016.95 1017.40 1017.49 1017.48 1017.67 1017.09 1015.59 1014.61 1013.10 1012.85 1013.43 1013.48 1013.90 1013.68 1011.76 1011.35 1010.98 1011.01 1009.72 1007.93 1006.10 1004.93 1003.79 1003.36 1003.62 1003.96 1004.00 1003.63 1003.74 1004.09 1003.99 1003.93 1003.95 1003.88 1003.92 1003.94 1004.07 1004.18
1016.03 1015.88 1015.66 1015.50 1015.31 1015.10 1015.01 1015.01 1015.01 1014.96 1015.07 1015.25 1015.32 1015.40 1015.59 1015.95 1016.48 1017.02 1017.19 1017.12 1017.34 1016.89 1015.78 1012.86 1012.26 1011.95 1011.72 1012.09 1012.38 1012.57 1011.84 1011.68 1011.98 1011.53 1010.25 1008.48 1006.63 1005.51 1004.31 1003.79 1003.35 1003.49 1003.95 1003.87 1004.11 1004.21 1004.19 1004.40 1004.31 1004.21 1004.36 1004.49 1004.43 1004.67
1015.13 1014.91 1014.69 1014.50 1014.32 1014.13 1014.13 1014.15 1014.15 1014.18 1014.35 1014.52 1014.64 1014.89 1015.17 1015.50 1016.17 1016.74 1016.92 1016.85 1016.81 1017.09 1015.63 1013.31 1012.03 1009.84 1010.21 1010.87 1011.30 1011.95 1012.35 1012.65 1012.49 1011.53 1010.18 1008.42 1006.83 1005.95 1004.94 1004.40 1003.22 1002.84 1002.90 1002.92 1002.69 1003.09 1003.51 1004.52 1004.71 1004.84 1004.60 1004.80 1005.14 1005.33
1014.13 1013.91 1013.68 1013.47 1013.31 1013.27 1013.29 1013.30 1013.29 1013.42 1013.61 1013.87 1014.18 1014.47 1014.80 1015.34 1016.01 1016.62 1016.67 1016.17 1016.29 1016.77 1016.36 1013.88 1011.28 1009.70 1009.21 1009.61 1010.34 1011.12 1011.98 1012.56 1012.32 1011.19 1009.87 1008.49 1007.07 1006.43 1004.86 1003.75 1002.99 1002.93 1002.77 1002.93 1003.11 1003.49 1004.06 1004.83 1005.19 1005.51 1005.37 1006.02 1006.38 1006.38
1013.09 1012.89 1012.69 1012.52 1012.37 1012.41 1012.45 1012.55 1012.69 1012.89 1013.08 1013.45 1013.81 1014.15 1014.68 1015.29 1015.69 1015.83 1015.95 1016.06 1016.01 1016.45 1016.27 1014.25 1011.25 1009.31 1009.03 1009.59 1010.21 1011.02 1011.63 1011.57 1011.45 1010.59 1009.75 1008.40 1007.29 1006.45 1005.02 1003.56 1003.32 1003.25 1002.99 1003.30 1003.57 1003.68 1004.81 1005.17 1005.96 1006.33 1006.30 1006.76 1007.08 1007.34
1012.12 1011.88 1011.87 1011.81 1011.73 1011.64 1011.53 1011.57 1011.83 1012.21 1012.64 1013.04 1013.54 1014.08 1014.72 1015.30 1015.71 1015.71 1015.64 1015.77 1015.94 1016.13 1015.90 1013.88 1011.07 1009.32 1008.49 1008.42 1009.19 1009.91 1010.53 1011.03 1010.49 1009.60 1009.19 1008.35 1007.14 1006.45 1004.81 1003.89 1003.76 1003.61 1003.71 1003.79 1003.98 1004.31 1004.98 1005.72 1006.38 1006.76 1006.79 1007.01 1007.41 1007.94
1011.52 1011.28 1011.26 1011.23 1011.19 1010.93 1010.67 1010.77 1011.07 1011.61 1012.15 1012.79 1013.53 1014.27 1014.90 1015.11 1015.24 1014.99 1015.19 1015.49 1015.85 1016.34 1015.10 1012.90 1010.80 1008.78 1008.21 1007.83 1008.18 1009.12 1009.37 1009.61 1009.31 1008.79 1008.50 1008.27 1007.15 1006.21 1005.15 1004.66 1004.21 1003.90 1003.49 1004.31 1004.79 1005.21 1005.77 1006.17 1006.88 1007.37 1007.66 1008.06 1008.31 1008.92
1011.04 1010.85 1010.89 1010.97 1010.83 1010.20 1009.87 1010.21 1010.48 1011.33 1012.25 1013.07 1013.71 1013.94 1014.10 1014.09 1014.24 1014.62 1015.53 1015.87 1015.95 1015.36 1014.64 1012.24 1010.35 1009.23 1008.46 1007.79 1007.84 1008.29 1008.15 1008.25 1008.37 1007.44 1007.62 1007.19 1006.12 1005.99 1005.86 1005.71 1005.43 1004.91 1004.75 1004.59 1005.12 1006.09 1006.47 1007.11 1007.62 1008.11 1008.50 1008.91 1009.23 1009.54
1011.02 1010.83 1010.84 1010.85 1010.81 1010.45 1010.41 1010.62 1011.28 1012.08 1012.83 1013.14 1013.19 1013.40 1013.45 1013.53 1013.95 1013.95 1013.75 1013.59 1013.63 1013.16 1011.89 1010.53 1009.69 1009.16 1008.47 1007.94 1007.66 1007.35 1007.68 1008.41 1007.35 1006.14 1006.60 1005.87 1005.86 1006.10 1006.11 1006.11 1005.85 1006.24 1005.53 1005.42 1005.70 1006.21 1006.77 1007.40 1008.17 1008.72 1009.23 1009.62 1009.97 1010.20
1010.91 1010.89 1010.92 1011.01 1011.09 1010.60 1011.06 1011.53 1012.01 1012.31 1012.57 1012.73 1012.84 1013.07 1013.19 1013.27 1013.09 1012.85 1011.72 1011.51 1011.03 1010.02 1009.18 1008.83 1008.69 1008.71 1008.17 1007.98 1007.53 1007.15 1007.05 1007.74 1006.05 1005.18 1004.97 1005.08 1004.80 1005.56 1005.95 1006.21 1006.60 1006.77 1006.47 1006.29 1006.58 1007.09 1007.72 1008.26 1008.75 1009.15 1009.59 1010.02 1010.34 1010.63
1010.87 1010.83 1010.96 1011.23 1011.51 1011.57 1011.75 1012.01 1012.20 1012.25 1012.44 1012.65 1012.86 1012.84 1012.06 1012.01 1011.39 1010.67 1009.71 1009.71 1009.21 1008.26 1007.82 1007.80 1007.82 1007.59 1007.91 1007.63 1007.50 1007.31 1006.68 1007.44 1006.42 1004.51 1003.73 1003.72 1003.76 1005.62 1005.26 1006.11 1006.95 1007.03 1006.85 1006.99 1007.45 1007.95 1008.42 1008.95 1009.38 1009.65 1010.02 1010.38 1010.71 1011.03
1011.09 1010.94 1010.98 1011.12 1011.40 1011.75 1011.93 1012.24 1012.45 1012.58 1012.69 1012.93 1012.92 1011.93 1011.51 1010.38 1009.29 1008.05 1007.59 1007.57 1007.39 1007.25 1007.09 1007.05 1007.21 1007.09 1007.19 1007.39 1007.35 1006.77 1006.13 1005.24 1005.40 1003.61 1002.61 1003.03 1003.93 1005.07 1004.81 1005.65 1006.96 1007.24 1007.28 1007.53 1008.07 1008.54 1008.95 1009.36 1009.82 1010.13 1010.32 1010.63 1010.87 1011.17
1011.50 1011.35 1011.25 1011.29 1011.29 1011.55 1011.99 1012.27 1012.49 1012.76 1012.93 1012.90 1012.35 1010.61 1009.29 1008.15 1007.76 1007.53 1007.43 1007.36 1006.95 1006.63 1006.81 1006.81 1006.80 1006.83 1006.85 1007.08 1006.45 1006.27 1005.67 1004.19 1003.09 1002.68 1002.47 1003.08 1004.17 1004.62 1005.21 1005.78 1006.47 1007.06 1007.65 1008.11 1008.53 1008.94 1009.45 1009.86 1010.11 1010.44 1010.73 1010.95 1011.21 1011.52
1011.54 1011.44 1011.43 1011.49 1011.61 1011.93 1012.29 1012.59 1012.87 1012.99 1012.75 1012.40 1011.35 1009.26 1007.97 1007.67 1007.09 1007.06 1007.07 1006.75 1006.64 1006.69 1006.84 1006.60 1006.61 1006.81 1006.60 1006.40 1006.10 1005.70 1004.60 1003.20 1002.69 1002.78 1003.06 1003.45 1004.23 1004.83 1005.02 1005.75 1006.76 1007.37 1007.90 1008.44 1008.99 1009.46 1009.83 1010.12 1010.27 1010.54 1010.93 1011.22 1011.53 1011.77
1011.07 1011.05 1010.96 1011.22 1011.53 1011.80 1012.04 1012.33 1012.44 1012.24 1011.50 1010.21 1008.69 1007.85 1007.43 1006.84 1006.41 1006.21 1006.37 1006.43 1006.73 1006.85 1006.49 1006.30 1006.37 1006.27 1006.71 1006.25 1005.36 1004.99 1004.15 1003.58 1003.41 1003.53 1003.73 1003.87 1004.54 1005.17 1005.79 1006.36 1007.29 1007.83 1008.37 1008.88 1009.32 1009.75 1009.98 1010.25 1010.50 1010.75 1011.01 1011.51 1011.79 1012.20
1010.35 1010.22 1010.51 1010.73 1011.17 1011.65 1011.74 1011.83 1011.12 1010.27 1009.50 1008.41 1007.55 1006.67 1006.59 1006.21 1005.99 1005.95 1006.04 1006.49 1006.81 1006.81 1006.71 1006.61 1006.62 1006.43 1006.06 1005.24 1004.59 1004.44 1004.36 1004.36 1004.26 1004.44 1004.61 1004.79 1005.28 1005.95 1006.48 1007.13 1007.94 1008.31 1008.82 1009.30 1009.65 1010.00 1010.22 1010.39 1010.54 1010.73 1011.17 1011.65 1011.97 1012.41
1009.43 1009.49 1009.86 1010.18 1010.42 1010.59 1010.35 1010.24 1010.13 1009.17 1007.91 1007.56 1006.81 1006.30 1006.13 1006.03 1006.15 1005.92 1006.15 1006.51 1006.62 1006.62 1006.62 1006.80 1006.92 1006.63 1006.40 1006.04 1005.39 1004.97 1005.08 1005.05 1004.87 1005.41 1005.79 1006.05 1006.34 1006.89 1007.47 1007.97 1008.43 1008.84 1009.27 1009.70 1010.06 1010.16 1010.44 1010.61 1010.67 1010.83 1011.15 1011.51 1011.81 1012.25
1008.85 1008.72 1009.03 1009.30 1010.00 1009.93 1009.32 1008.37 1008.42 1007.79 1006.89 1006.15 1005.77 1005.60 1005.82 1006.06 1006.44 1006.20 1006.41 1006.73 1006.98 1007.31 1007.66 1007.55 1007.28 1007.53 1007.23 1006.66 1005.95 1005.53 1005.65 1005.71 1005.36 1005.86 1006.67 1007.17 1007.48 1007.75 1008.10 1008.33 1008.71 1009.26 1009.75 1010.17 1010.46 1010.65 1010.81 1011.03 1011.20 1011.33 1011.43 1011.71 1012.01 1012.47
1008.36 1007.91 1007.91 1008.71 1008.97 1009.11 1008.49 1007.33 1006.32 1005.66 1005.41 1005.07 1005.54 1005.87 1006.38 1006.45 1006.76 1007.09 1007.25 1007.63 1007.65 1008.26 1008.67 1008.35 1007.87 1007.81 1007.45 1006.81 1006.49 1006.25 1006.30 1006.16 1006.15 1006.27 1006.75 1007.49 1008.00 1008.13 1008.49 1008.88 1009.25 1009.59 1009.88 1010.14 1010.41 1010.87 1010.95 1011.13 1011.50 1011.66 1011.82 1012.06 1012.38 1012.75
1007.84 1007.65 1007.91 1008.29 1007.99 1008.03 1007.31 1006.23 1005.24 1004.96 1004.95 1005.34 1005.55 1006.08 1006.61 1007.09 1007.51 1008.19 1008.28 1008.33 1008.97 1009.05 1008.40 1009.11 1008.67 1007.74 1007.25 1007.27 1007.19 1007.05 1007.11 1007.01 1007.15 1007.53 1007.78 1007.89 1008.18 1008.47 1008.84 1009.20 1009.44 1009.77 1010.16 1010.52 1010.71 1010.87 1011.09 1011.36 1011.75 1011.84 1012.07 1012.50 1012.75 1013.03
1007.70 1007.51 1007.51 1007.42 1007.23 1006.60 1005.75 1005.04 1004.77 1004.86 1005.12 1005.74 1006.10 1006.61 1007.27 1007.64 1007.89 1008.23 1008.61 1009.38 1009.55 1009.46 1009.07 1008.85 1008.55 1008.31 1008.03 1007.93 1007.82 1007.79 1007.68 1007.59 1007.86 1008.20 1008.35 1008.49 1008.79 1009.09 1009.42 1009.68 1009.80 1009.97 1010.42 1010.93 1011.07 1011.20 1011.46 1011.83 1012.08 1012.12 1012.48 1012.64 1012.88 1013.22
1007.57 1007.32 1007.02 1006.72 1006.37 1005.82 1005.14 1004.90 1005.04 1005.03 1005.46 1006.09 1006.41 1006.83 1007.28 1007.75 1008.24 1008.80 1009.35 1009.74 1009.77 1009.15 1008.88 1008.87 1008.65 1008.57 1008.38 1008.33 1008.29 1008.37 1008.49 1008.39 1008.49 1008.71 1008.93 1009.06 1009.36 1009.83 1009.86 1010.01 1010.19 1010.38 1010.55 1011.22 1011.36 1011.59 1011.81 1012.02 1012.28 1012.28 1012.45 1012.63 1012.87 1013.06
1007.67 1007.79 1007.28 1007.19 1006.27 1005.75 1005.55 1005.30 1005.26 1005.47 1006.03 1006.45 1006.73 1007.32 1007.81 1007.83 1008.41 1009.42 1009.95 1010.02 1009.77 1009.48 1009.23 1009.07 1008.89 1008.74 1008.75 1008.77 1008.77 1008.91 1008.94 1008.56 1008.65 1009.04 1009.58 1009.54 1009.75 1009.98 1010.25 1010.53 1010.80 1011.04 1011.22 1011.43 1011.49 1011.59 1011.91 1012.18 1012.29 1012.37 1012.53 1012.66 1012.83 1013.14
1007.63 1007.81 1007.75 1007.39 1006.94 1006.55 1006.48 1006.23 1006.27 1006.29 1006.13 1006.51 1007.39 1007.80 1007.81 1008.06 1009.03 1009.98 1010.22 1010.17 1010.01 1009.91 1009.75 1009.57 1009.33 1009.12 1009.05 1009.01 1008.89 1008.91 1009.25 1009.24 1009.14 1009.39 1009.95 1009.90 1009.84 1009.85 1010.15 1010.45 1010.76 1011.27 1011.39 1011.23 1011.37 1011.55 1011.87 1012.12 1012.24 1012.44 1012.62 1013.17 1013.42 1013.30
1008.15 1008.06 1007.69 1007.67 1007.54 1007.24 1006.85 1007.01 1007.16 1006.99 1006.97 1007.09 1007.41 1007.59 1008.07 1008.77 1009.75 1010.11 1010.00 1010.05 1010.06 1010.02 1009.93 1009.81 1009.49 1009.27 1009.09 1009.20 1009.41 1009.68 1009.75 1009.69 1009.51 1009.77 1010.21 1010.33 1010.38 1010.31 1010.35 1010.47 1010.70 1010.99 1011.34 1011.43 1011.51 1011.61 1011.72 1012.05 1012.22 1012.42 1012.63 1012.94 1013.11 1013.17
1008.38 1008.35 1008.16 1007.81 1007.43 1007.48 1007.30 1007.27 1007.18 1007.27 1007.52 1007.95 1007.99 1007.97 1008.29 1008.79 1009.65 1009.91 1009.87 1009.99 1009.99 1010.00 1009.90 1009.83 1009.73 1009.63 1009.57 1009.76 1009.87 1010.07 1010.15 1010.24 1010.23 1010.38 1010.55 1010.79 1011.01 1011.07 1011.13 1011.15 1011.29 1011.56 1011.37 1011.40 1011.52 1011.69 1011.67 1011.75 1012.05 1012.29 1012.39 1012.47 1012.63 1012.86
1008.23 1007.87 1007.82 1007.61 1007.48 1007.54 1007.80 1007.83 1007.73 1007.85 1008.02 1007.71 1007.69 1008.33 1008.83 1009.10 1009.33 1009.62 1009.97 1010.05 1010.15 1010.17 1010.18 1010.28 1010.28 1010.24 1010.26 1010.32 1010.43 1010.50 1010.61 1010.55 1010.43 1010.51 1010.55 1010.78 1010.93 1011.32 1011.53 1011.49 1011.45 1011.41 1011.45 1011.39 1011.71 1011.81 1011.65 1011.63 1011.73 1011.71 1011.88 1012.03 1012.25 1012.55
1008.50 1008.39 1007.85 1007.71 1007.73 1007.99 1008.37 1008.35 1007.95 1007.86 1007.92 1007.79 1007.84 1008.51 1008.92 1009.50 1009.87 1009.96 1009.98 1010.27 1010.29 1010.09 1010.21 1010.31 1010.48 1010.37 1010.30 1010.21 1010.54 1010.94 1011.14 1011.11 1011.03 1010.88 1010.93 1011.14 1011.25 1011.62 1011.66 1011.62 1011.42 1011.38 1011.38 1011.28 1011.14 1011.38 1012.09 1012.00 1012.13 1011.95 1011.97 1012.05 1012.24 1012.31
1008.46 1008.08 1008.02 1008.12 1008.33 1008.61 1008.49 1008.32 1008.07 1007.98 1008.04 1008.25 1008.45 1008.63 1009.09 1009.48 1009.76 1009.97 1009.97 1009.94 1009.92 1010.04 1010.15 1010.23 1010.33 1010.36 1010.43 1010.57 1010.75 1010.96 1011.25 1011.61 1011.77 1011.83 1011.86 1011.85 1011.90 1011.97 1011.93 1011.78 1011.59 1011.36 1011.02 1010.93 1010.85 1011.15 1011.33 1011.46 1011.47 1011.49 1011.61 1011.65 1011.87 1012.08
1008.28 1008.28 1008.24 1008.33 1008.73 1008.80 1008.46 1008.39 1008.38 1008.43 1008.51 1008.52 1008.76 1008.96 1009.18 1009.17 1009.27 1009.45 1009.51 1009.74 1009.84 1009.88 1010.07 1010.15 1010.25 1010.54 1010.81 1010.97 1011.16 1011.31 1011.53 1011.82 1012.15 1012.21 1012.31 1012.31 1012.23 1012.33 1012.11 1011.78 1011.55 1011.22 1011.02 1010.93 1010.97 1011.07 1011.25 1011.34 1011.35 1011.41 1011.57 1011.81 1012.05 1012.24
1008.53 1008.49 1008.57 1008.59 1008.70 1008.67 1008.61 1008.46 1008.45 1008.57 1008.61 1008.66 1008.77 1008.85 1008.88 1008.89 1008.86 1008.88 1009.21 1009.36 1009.32 1009.31 1009.51 1009.82 1010.15 1010.50 1010.87 1011.07 1011.29 1011.65 1011.91 1012.13 1012.40 1012.54 1012.63 1012.62 1012.62 1012.53 1012.27 1012.05 1011.88 1011.67 1011.51 1011.39 1011.44 1011.55 1011.63 1011.70 1011.76 1011.95 1012.07 1012.18 1012.31 1012.45
Wind_Speed
18 18 17 17 17 17 16 16 15 15 16 14 13 12 11 10 8 5 2 3 2 3 9 7 5 6 4 4 4 6 4 1 4 3 3 0 1 2 2 2 4 5 6 4 4 2 4 6 7 4 3 1 4 5
19 17 18 18 18 17 17 17 17 16 16 14 14 14 13 11 10 8 4 4 4 3 6 9 15 17 16 15 6 4 5 5 2 4 2 4 1 2 3 5 1 4 2 4 4 1 2 2 1 1 3 1 2 6
17 18 18 18 18 17 18 17 17 18 17 16 15 14 14 12 12 9 3 3 2 3 10 13 17 19 18 20 14 5 3 2 3 5 4 3 5 2 4 4 5 2 3 3 5 2 2 3 3 2 2 5 4 8
18 19 18 18 17 17 17 16 16 15 15 15 15 14 13 13 13 10 4 3 1 3 5 5 4 8 7 15 24 23 15 4 6 5 4 4 4 3 1 2 2 2 9 7 4 5 9 7 5 7 9 8 10 10
19 20 19 18 17 17 16 15 15 14 14 14 12 11 11 12 11 5 4 3 4 3 4 9 18 16 16 18 18 21 17 11 3 4 4 4 3 3 2 3 4 6 7 6 5 12 6 7 7 8 14 13 13 14
19 19 19 19 16 15 14 13 12 12 13 11 10 10 10 12 10 3 3 5 6 4 4 6 5 6 2 15 18 16 10 7 4 3 4 5 4 4 3 3 2 5 6 3 6 8 14 13 11 11 15 14 13 14
18 18 16 14 14 13 13 14 13 13 13 11 11 9 13 12 5 3 1 2 5 5 3 5 6 4 3 10 7 6 9 4 5 3 4 3 2 3 3 3 5 5 6 10 16 20 14 7 11 12 16 16 15 15
15 15 13 13 11 12 14 14 15 14 11 11 10 13 11 8 0 4 3 2 4 2 2 4 5 4 9 5 6 5 6 4 6 3 2 3 3 3 4 2 6 11 15 13 11 13 15 16 15 13 13 13 15 14
12 11 10 8 8 11 11 10 12 14 11 15 16 15 4 1 3 3 10 12 1 1 4 4 3 1 1 3 4 3 4 4 3 3 3 3 1 4 5 7 13 15 10 16 17 18 17 17 15 13 14 12 14 11
7 5 3 4 7 13 6 8 11 16 19 19 7 3 3 5 9 16 3 4 4 4 5 5 3 4 3 1 2 4 2 2 4 5 4 4 2 3 1 3 4 11 17 19 21 15 16 15 13 13 12 10 10 9
5 2 1 0 5 6 9 17 22 21 16 2 3 3 2 13 3 3 5 7 6 6 6 6 8 4 2 3 2 3 4 3 5 6 5 3 3 5 7 4 7 6 10 5 14 14 14 16 13 12 10 9 8 7
4 1 0 2 6 11 20 19 17 4 2 3 2 2 2 4 5 6 4 2 7 7 6 6 6 6 3 2 3 1 4 2 5 6 4 3 3 7 12 9 7 6 12 16 17 17 15 13 11 11 9 8 6 6
6 3 4 5 9 10 11 14 6 7 5 2 3 3 4 5 5 5 7 4 4 4 6 5 6 5 3 2 2 0 4 4 5 4 4 5 5 7 13 12 9 10 15 17 16 14 14 12 10 9 8 6 5 5
4 5 4 6 8 12 12 14 9 4 4 1 2 3 3 5 7 6 7 5 3 3 5 6 4 4 2 4 1 3 2 4 4 5 6 6 13 11 14 16 14 15 16 16 15 13 13 11 9 7 5 4 5 5
8 5 5 5 7 15 15 11 8 2 2 2 4 6 9 7 4 3 4 2 3 3 5 4 3 1 3 2 2 2 3 6 8 6 3 8 13 16 15 16 16 15 14 14 13 11 11 10 8 6 5 5 5 5
6 6 4 7 9 11 10 8 2 1 2 4 7 5 4 2 4 5 5 5 4 4 2 1 3 3 5 3 4 7 5 5 3 2 3 10 12 11 14 16 13 13 13 12 11 10 10 8 7 6 5 5 5 6
5 3 6 11 9 9 10 2 2 5 5 6 6 7 7 5 3 3 4 5 4 4 2 2 5 4 2 5 6 4 4 3 1 3 5 11 15 15 13 14 12 13 12 11 10 8 6 5 5 5 6 5 6 8
3 2 9 11 11 5 3 4 4 5 8 7 6 3 4 3 2 3 5 5 5 3 2 1 1 2 5 4 2 2 1 3 5 6 9 12 14 13 11 13 12 11 11 9 8 6 4 4 5 4 6 8 8 8
7 6 10 13 9 2 4 7 5 4 5 2 4 4 1 2 1 0 5 4 4 2 4 2 2 1 1 2 1 4 6 6 10 9 10 12 12 12 12 11 10 9 9 8 7 5 5 5 5 5 6 6 5 5
17 17 15 15 13 3 4 4 5 5 3 3 2 1 1 3 2 1 6 3 3 2 3 1 2 3 2 2 1 5 6 6 9 11 9 8 7 10 9 9 7 8 7 8 6 4 5 5 4 4 5 5 6 6
3 2 4 9 4 4 3 3 5 4 3 1 3 3 2 2 4 3 3 1 3 3 1 2 1 5 3 3 4 5 6 5 6 6 9 8 6 7 7 7 8 6 6 5 5 4 3 5 5 5 5 6 6 6
2 4 2 3 3 6 5 4 3 2 2 2 3 3 3 3 3 3 2 5 3 2 3 1 3 2 7 7 7 7 6 9 9 8 9 9 8 7 6 6 6 5 4 4 3 4 5 5 5 6 6 6 5 5
2 2 2 3 3 3 5 1 2 3 4 3 1 3 3 2 2 1 3 2 2 3 4 2 1 4 5 5 7 8 7 8 7 6 6 6 6 6 6 5 4 5 6 4 3 5 5 5 5 6 6 6 6 6
1 2 3 2 1 3 2 3 1 3 3 3 3 4 4 3 1 3 3 1 2 3 3 4 2 3 5 5 5 5 5 4 7 6 5 6 7 5 5 5 4 4 4 5 4 5 5 5 4 5 5 6 6 5
2 5 3 6 3 5 6 6 6 4 4 5 3 4 4 4 4 4 3 3 4 4 3 3 3 3 3 4 5 5 4 4 6 7 4 5 7 6 5 5 5 4 3 4 5 6 5 5 5 5 6 6 7 8
6 5 5 6 4 4 4 4 6 6 4 5 5 2 3 3 5 4 2 2 3 3 3 2 3 5 5 4 5 5 4 4 6 7 4 3 3 5 6 6 5 4 3 3 5 6 6 6 6 8 7 6 4 8
5 5 3 1 1 2 2 1 2 2 4 4 2 3 3 4 3 2 1 1 1 2 2 1 2 3 5 4 4 3 2 1 3 6 5 4 4 3 3 5 5 4 5 5 5 6 8 7 7 8 7 6 7 8
2 3 4 7 2 2 3 3 4 4 2 2 1 3 2 3 3 2 1 1 2 3 4 4 4 3 3 4 5 6 7 7 9 9 7 7 5 4 4 3 3 2 3 4 5 6 7 8 8 9 9 8 8 8
4 6 3 5 3 4 4 4 3 1 1 1 2 3 3 2 2 3 2 3 2 2 4 3 5 4 5 6 6 5 5 4 4 6 5 5 4 3 3 3 2 0 3 4 6 5 6 6 7 8 9 7 5 4
3 3 2 5 5 7 4 3 4 4 2 2 5 5 5 3 2 1 5 3 2 2 3 3 3 2 4 6 6 5 4 3 3 2 1 2 1 3 3 3 3 3 3 5 6 5 3 4 4 4 5 5 5 5
3 3 3 4 4 4 3 2 4 7 7 7 7 9 7 4 2 2 4 3 2 1 1 3 3 3 5 4 4 4 4 3 3 3 3 3 2 2 3 4 4 3 2 2 4 6 6 6 6 6 6 6 6 5
3 4 2 5 4 2 1 3 3 3 3 3 3 2 2 2 3 3 3 4 4 4 3 4 5 4 3 3 3 3 3 5 4 3 3 2 3 3 3 3 3 2 1 2 2 2 5 4 5 5 5 5 5 4
3 3 3 3 2 2 3 2 3 2 2 1 2 1 1 0 0 1 3 4 3 2 3 4 5 5 6 4 4 5 4 4 4 3 3 4 4 4 3 4 4 4 4 4 4 4 4 4 3 2 2 2 3 3
Wind_Direction
285 287 286 286 282 277 274 275 273 270 274 276 276 273 247 242 208 192 226 215 241 259 276 272 286 259 270 267 291 1 272 147 319 295 303 308 203 103 133 143 177 152 142 138 131 147 213 158 143 226 25 104 151 160
281 278 284 282 278 275 271 267 266 264 266 265 265 259 241 230 200 194 229 180 198 229 281 303 278 262 252 263 304 292 312 285 1 311 336 290 252 182 202 170 227 165 191 170 214 129 30 299 19 8 226 192 134 143
278 278 278 276 274 273 273 269 264 259 258 258 259 252 236 211 192 190 212 151 207 258 277 249 251 256 236 224 219 245 229 297 89 7 308 292 265 222 200 175 118 170 166 137 161 143 133 133 140 155 137 113 135 116
278 278 276 274 273 271 272 266 264 261 252 250 255 254 229 207 187 185 203 188 231 297 275 292 287 260 240 216 219 220 243 224 341 313 270 273 269 198 292 6 222 143 166 137 109 122 117 83 93 118 121 117 101 90
277 278 277 274 272 272 269 263 259 248 244 250 245 245 212 190 173 186 222 215 225 249 298 295 298 272 239 223 209 213 227 242 281 267 241 245 261 246 185 268 187 185 153 182 169 151 108 120 110 122 102 87 85 94
276 276 275 273 268 263 265 262 255 245 239 229 221 214 194 163 159 154 234 203 200 170 279 290 305 272 318 191 200 193 194 199 226 241 249 266 261 261 244 240 126 202 172 217 136 134 111 109 99 92 100 101 95 90
273 274 274 276 266 258 255 248 240 233 225 217 206 197 160 168 174 182 211 94 187 145 242 267 265 240 128 140 157 161 173 186 215 235 232 276 267 265 252 233 152 193 128 124 127 122 105 121 110 109 103 101 94 88
278 272 265 271 263 264 258 246 229 221 218 203 181 148 156 159 65 266 181 167 170 150 257 263 268 274 181 159 140 157 156 202 202 253 238 248 305 293 259 146 142 132 126 108 106 94 108 119 110 102 101 101 87 80
288 271 264 261 275 285 262 229 211 205 186 151 135 130 117 190 180 213 179 160 107 218 277 234 258 270 23 179 112 155 188 169 146 219 225 188 216 247 333 168 155 149 127 123 107 109 112 105 104 103 102 98 96 91
312 298 249 286 318 314 156 208 159 134 129 136 141 167 177 191 133 124 118 151 174 208 221 254 271 270 296 180 140 137 182 121 194 211 133 218 226 306 183 105 15 126 121 122 113 114 115 110 110 104 97 94 96 93
355 22 80 57 20 18 113 118 118 123 136 202 167 184 68 146 154 195 206 188 173 207 215 223 218 241 190 234 136 244 159 111 227 158 211 147 134 167 150 110 111 138 130 116 121 122 118 122 123 119 112 107 102 93
297 278 202 117 84 96 116 121 129 122 162 154 123 118 165 178 190 222 207 159 200 217 184 184 186 200 214 194 243 90 89 65 263 141 166 150 156 160 153 142 141 161 144 122 119 119 119 118 119 119 125 123 109 92
2 4 205 154 132 124 131 143 97 113 145 125 33 260 181 186 198 229 190 167 229 202 182 174 171 181 157 181 130 207 149 186 281 208 197 167 126 189 138 130 142 147 127 120 117 115 116 116 119 125 123 120 127 127
43 52 81 170 194 178 147 139 127 85 60 70 234 238 195 213 226 209 209 192 196 218 184 165 131 193 132 149 340 207 162 125 246 225 196 157 166 165 150 139 145 148 136 129 128 128 124 125 123 119 119 134 145 140
21 27 101 122 141 146 151 150 123 81 176 213 232 230 221 226 229 249 237 259 203 191 152 163 106 207 134 153 236 53 269 210 192 190 169 144 153 145 138 140 139 139 141 135 133 131 135 137 136 127 123 133 129 119
322 295 232 168 160 162 149 126 86 92 204 221 232 260 230 213 232 205 193 211 193 144 136 219 143 158 220 168 160 214 236 213 181 181 136 137 134 133 140 136 139 138 135 134 135 137 144 151 150 130 127 131 118 116
254 219 153 167 174 162 154 138 169 212 230 224 225 228 240 294 264 181 178 188 162 181 188 189 170 174 75 220 200 190 259 334 190 113 130 139 137 131 128 122 129 130 131 131 133 144 145 139 138 149 144 123 115 107
236 201 168 173 167 155 186 215 241 228 227 235 250 218 194 216 229 179 172 160 142 176 164 152 131 146 216 254 181 190 100 79 95 107 115 113 113 116 121 120 126 126 126 131 134 134 150 166 175 164 138 134 125 120
232 215 199 193 185 199 219 192 217 258 255 276 258 238 273 193 74 10 122 126 105 149 126 166 271 211 141 310 274 130 136 134 116 99 90 98 104 108 111 114 119 123 127 129 136 128 108 92 102 120 131 145 127 129
260 261 224 205 182 207 238 214 174 226 245 231 212 122 51 71 78 100 103 78 74 77 77 352 35 337 290 282 310 105 110 122 117 107 96 89 99 114 124 130 124 124 126 132 123 132 127 110 105 115 122 128 134 134
235 310 65 163 167 225 269 252 226 206 207 72 131 127 81 29 60 50 63 4 59 41 144 193 309 260 241 65 69 100 97 97 99 108 125 128 123 118 116 112 126 132 137 141 140 132 149 120 124 123 127 118 120 123
238 184 132 197 207 190 245 231 249 320 51 65 49 49 50 37 41 63 1 37 41 15 8 253 251 353 74 62 56 65 92 97 93 98 92 117 122 121 122 129 135 127 119 123 139 141 133 128 130 132 126 121 132 131
182 227 203 191 247 241 272 329 359 31 73 77 6 71 59 68 9 6 84 92 181 205 212 210 52 44 70 71 78 69 65 94 96 99 98 98 94 101 112 108 129 133 128 112 123 130 126 124 131 131 128 141 137 133
215 256 292 301 258 302 288 0 57 35 66 44 32 41 28 56 155 68 72 15 300 304 14 37 48 89 81 52 63 62 57 89 97 86 89 113 109 93 103 104 104 99 106 121 124 136 142 133 136 154 156 156 156 153
31 351 43 340 352 349 17 8 9 40 47 36 62 48 23 346 56 52 29 350 346 358 16 34 49 49 83 94 87 75 59 122 117 110 92 110 116 118 105 101 97 90 123 136 152 147 143 149 151 147 147 151 149 144
63 11 43 355 353 21 7 12 13 7 7 45 58 50 8 51 56 46 2 333 357 15 31 58 115 113 89 79 104 100 103 120 118 104 108 116 127 141 137 140 142 132 178 147 145 150 148 153 155 154 146 136 140 154
48 0 348 58 27 310 335 75 143 59 34 18 16 58 63 69 63 358 340 309 4 31 36 37 71 99 113 110 92 87 115 129 91 99 109 103 89 90 137 149 159 137 161 171 170 174 169 169 171 174 168 167 179 186
28 16 356 341 14 359 66 41 16 14 35 131 168 47 62 73 130 176 142 111 91 63 62 44 52 56 80 95 108 119 101 105 103 105 103 85 67 64 56 62 63 26 198 188 187 187 184 183 182 190 198 206 206 208
351 342 330 8 39 53 40 18 12 48 316 292 92 101 102 63 79 103 138 159 174 107 87 70 60 84 93 98 91 89 101 108 125 142 144 140 152 107 38 24 11 248 223 224 202 247 230 215 207 208 211 219 227 217
360 332 357 19 34 30 21 347 18 30 53 65 106 112 96 57 47 84 134 144 179 80 66 86 133 143 115 117 115 92 49 33 22 340 252 208 93 27 352 341 341 324 276 233 226 194 129 189 159 184 191 188 195 190
311 339 52 35 57 26 360 339 71 83 75 80 88 97 103 110 119 180 203 199 161 140 155 148 127 111 113 110 112 123 107 56 57 61 48 62 44 9 338 322 314 303 297 237 210 211 208 210 215 202 196 196 186 212
17 36 70 74 72 18 64 44 50 56 40 59 65 78 111 135 167 185 188 179 195 213 190 171 165 160 139 104 93 76 91 124 130 103 85 72 60 18 349 344 339 359 35 95 114 148 183 183 172 177 173 174 182 200
89 83 63 66 52 35 13 25 42 76 69 80 88 122 157 205 125 155 157 213 215 190 179 165 151 149 156 150 137 125 124 121 118 90 65 40 23 2 9 35 39 44 61 69 77 93 102 112 122 142 166 182 198 212